Carlsbad, CA

2:36 AM PDT on August 21, 2017 (GMT -0700)
McClellan-Palomar

Weather History for KCRQ - January, 2013

Change the Weather History Date:

Friday, January 18, 2013

  Actual Average Record
Temperature  
Mean Temperature 62 °F -  
Max Temperature 73 °F 61 °F 81 °F (2005)
Min Temperature 50 °F 46 °F 39 °F (2001)
Degree Days  
Heating Degree Days 4    
Growing Degree Days 12 (Base 50)    
Moisture  
Dew Point 26 °F    
Average Humidity 28    
Maximum Humidity 38    
Minimum Humidity 15    
Precipitation  
Precipitation 0.00 in - - ()
Sea Level Pressure  
Sea Level Pressure 30.08 in    
Wind  
Wind Speed 2 mph (NNE)    
Max Wind Speed 9 mph    
Max Gust Speed -    
Visibility 10 miles    
Events      
Averages and records for this station are not official NWS values.
T = Trace of Precipitation, MM = Missing Value Source: NWS Daily Summary

Daily Weather History Graph

Daily Weather History Graph

Search for Another Location

Airport or City:

Trip Planner

Search our weather history database for the weather conditions in past years. The results will help you decide how hot, cold, wet, or windy it might be!

Date:

Astronomy

Jan. 18, 2013 Rise Set
Actual Time 6:51 AM PST 5:08 PM PST
Civil Twilight 6:24 AM PST 5:34 PM PST
Nautical Twilight 5:54 AM PST 6:05 PM PST
Astronomical Twilight 5:24 AM PST 6:34 PM PST
Moon 10:58 AM PST (1/18) No Moon Set
Length of Visible Light 11h 09m
Length of Day
10h 16m
Waxing Crescent, 48% of the Moon is Illuminated
Jan 18
Waxing Crescent
Jan 18
First Quarter
Jan 26
Full
Feb 3
Last Quarter
Feb 9
New

Hourly Weather History & Observations

Time (PST) Temp. Dew Point Humidity Pressure Visibility Wind Dir Wind Speed Gust Speed Precip Events Conditions
12:53 AM 51.1 °F 26.1 °F 38% 30.11 in 10.0 mi Calm Calm - N/A   Clear
1:53 AM 51.1 °F 24.1 °F 35% 30.10 in 10.0 mi NNE 3.5 mph - N/A   Clear
2:53 AM 53.1 °F 23.0 °F 31% 30.09 in 10.0 mi ENE 3.5 mph - N/A   Clear
3:53 AM 53.6 °F 23.0 °F 30% 30.09 in 10.0 mi Calm Calm - N/A   Clear
4:53 AM 53.1 °F 21.9 °F 30% 30.08 in 10.0 mi Calm Calm - N/A   Clear
5:53 AM 50.0 °F 24.1 °F 36% 30.09 in 10.0 mi Calm Calm - N/A   Clear
6:53 AM 51.1 °F 23.0 °F 33% 30.09 in 10.0 mi Calm Calm - N/A   Clear
7:53 AM 55.9 °F 24.1 °F 29% 30.09 in 10.0 mi NE 3.5 mph - N/A   Clear
8:53 AM 64.9 °F 26.1 °F 23% 30.11 in 10.0 mi Calm Calm - N/A   Clear
9:53 AM 70.0 °F 27.0 °F 20% 30.11 in 10.0 mi North 3.5 mph - N/A   Clear
10:53 AM 73.0 °F 23.0 °F 15% 30.09 in 10.0 mi West 3.5 mph - N/A   Clear
11:53 AM 72.0 °F 28.9 °F 20% 30.06 in 10.0 mi WSW 9.2 mph - N/A   Clear
12:53 PM 69.1 °F 33.1 °F 26% 30.05 in 10.0 mi West 5.8 mph - N/A   Clear
1:53 PM 69.1 °F 26.1 °F 20% 30.05 in 10.0 mi Calm Calm - N/A   Clear
2:53 PM 69.1 °F 25.0 °F 19% 30.04 in 10.0 mi West 3.5 mph - N/A   Clear
3:53 PM 69.1 °F 24.1 °F 18% 30.05 in 10.0 mi West 4.6 mph - N/A   Clear
4:53 PM 68.0 °F 25.0 °F 20% 30.06 in 10.0 mi Calm Calm - N/A   Clear
5:53 PM 62.1 °F 27.0 °F 26% 30.07 in 10.0 mi Calm Calm - N/A   Clear
6:53 PM 60.1 °F 28.0 °F 30% 30.08 in 10.0 mi Calm Calm - N/A   Clear
7:53 PM 57.9 °F 28.9 °F 33% 30.09 in 10.0 mi East 3.5 mph - N/A   Clear
8:53 PM 57.0 °F 30.0 °F 36% 30.09 in 10.0 mi ENE 3.5 mph - N/A   Clear
9:53 PM 55.9 °F 30.0 °F 37% 30.09 in 10.0 mi NNE 4.6 mph - N/A   Clear
10:53 PM 55.0 °F 28.0 °F 35% 30.09 in 10.0 mi ENE 3.5 mph - N/A   Clear
11:53 PM 53.1 °F 27.0 °F 37% 30.08 in 10.0 mi NE 3.5 mph - N/A   Clear